Location: Moscow
(55.7500°N, 37.5830°E)
Time: 13:02:10
(UTC+03:00)

S-56A Canister/Altair - Pass Details

Date: 04 December 2021
Orbit: 633 x 2499 km, 38.9° (Epoch: 17 January)

Event Time Altitude Azimuth Distance (km) Brightness Sun altitude
Rises 04:21:25 0° 252° (WSW) 3,927 - -34.8°
Reaches altitude 10° 04:26:47 10° 219° (SW) 2,535 - -34.0°
Maximum altitude 04:28:16 11° 204° (SSW) 2,362 - -33.8°
Drops below altitude 10° 04:29:39 10° 189° (S) 2,336 - -33.6°
Exits shadow 04:32:52 - 159° (SSE) 2,788 10.5 -33.2°
Sets 04:33:50 0° 152° (SSE) 3,032 10.8 -33.0°
